HULIANWANG DIGUI-34

导读 | 星芒AI

HULIANWANG DIGUI-34 是一颗由中国发射的遥感卫星,主要用于国土监测、资源调查和环境评估等领域。该卫星具备高分辨率成像能力,能够提供精准的地理信息数据,支持城市规划、农业管理和灾害预警等应用。作为“鸿雁”星座系统的一部分,它提升了我国在低轨卫星通信与遥感技术方面的综合能力,增强了数据获取的实时性和覆盖范围。

基本信息
目录编号:
64287
目录名称:
HULIANWANG DIGUI-34
国际标识:
2025-121E
轨道中心:
EARTH
卫星名称:
HULIANWANG DIGUI-34
卫星全名:
HULIANWANG DIGUI-34
卫星状态:
在轨 (已飞行146 天)
发射日期:
2025-06-05 UTC
国别 :
中国 (CN)
星等 :
--
轨道信息
数据来源 国际轨道数据 AOE轨道数据
星历时间 2025-10-28T21:59:58+0800
1天前
查看轨道信息
2025-10-28T04:00:00+0800
1天前
查看轨道信息
半长轴 7546.044km 7546.043km
偏心率 0.0001662 0.0001498
轨道倾角 86.492° 86.494°
近地点辐角 79.149° 79.569°
升交点赤经 91.723° 91.976°
平近点角 280.984° 306.779°
近地点 1166.654km 1166.777km
远地点 1169.164km 1169.039km
周期 108.727分钟 108.727分钟
每日圈数 13.24414 13.244144
详细信息
使用方式:
暂无
2D轨道图
3D轨道图
轨道高度分析图
轨道倾角分析图
轨道综合分析图
查看轨道综合分析图